Location: D�derode
(51.8092°N, 10.1065°E)
Time: 16:45:39
(UTC+00:00)

BREEZE-M DEB (TANK) - Pass Details

Date: 25 April 2021
Orbit: 315 x 13085 km, 49.6° (Epoch: 11 May)

Event Time Altitude Azimuth Distance (km) Brightness Sun altitude
Rises 21:44:45 0° 256° (WSW) 12,863 9.9 -21.7°
Reaches altitude 10° 21:58:20 10° 258° (WSW) 9,355 9.1 -22.5°
Maximum altitude 22:21:52 79° 178° (S) 1,642 4.9 -23.6°
Drops below altitude 10° 22:27:19 10° 92° (E) 2,472 6.0 -23.8°
Enters shadow 22:27:29 - 92° (E) 2,538 6.0 -23.8°
